Kezdőlap
METAR-TAF:

METAR-TAF

Repülőterek :

Dodge Center Airport (Dodge Center Municipal)

Dodge Center, Minnesota, Amerikai Egyesült Államok

földrajzi szélesség: 44-01-05N, földrajzi hosszúság: 092-49-53W, magasság: 398 m

Jelenlegi meteorológiai megfigyelések

A jelentés 10 perccel ezelõtt készült, 10:15 UTC
Észak-északkeleti szél 4 kt
Hőmérséklet 12°C
Páratartalom 54%
Légköri nyomás 1016 hPa
Látótávolság: 16.1 km

METAR: KTOB 171015Z AUTO 02004KT 10SM 12/03 A3001 RMK AO2

Idő: 05:25 (10:25 UTC)


TAF: hiányzik

Meteorológiai megfigyelések és előrejelzések több, mint 4000 repülőtéren (METAR és TAF jelentéseket).

A térképen piros és sárga pontok jelzik az elérhető meteorológiai állomásokat.

Mozgassa az egeret a pont fölött, hogy megjelenjen az állomás neve.

Azután kattintson az időjárási megfigyelések és előrejelzések megtekintéséhez.

A térkép megváltoztatása: kattintson a fekete keresztel jelölt zöld gombra ráközelítéshez, a vonallal jelölt zöld gombra távolításhoz, vagy a zöld nyilakra a szomszédos térképek eléréséhez.


METAR-TAF: